Starlink 6151

operational
NORAD ID: 57118 Int'l Des: 2023-090 Owner: SPXS Country: US Constellation: starlink
LEOCIRCULAR

About Starlink 6151

Description loading...

Live Position

Loading 3D Globe...

Upcoming Passes

Altitude History

Altitude vs Time

uPlot chart will show altitude changes over time

Two-Line Element Set

1 57118U 23090T 25302.84625875 .00089589 00000-0 11758-2 0 9996
2 57118 42.9915 222.6066 0006674 212.4996 147.5457 15.57513627131239
Epoch: Oct 29, 2025 • Age: 25 hours

Current Status

Altitude 390.9 km
Velocity 7.68 km/s
Sub-Earth Point 11.69°N, 19.72°E
Launch Date Jun 23, 2023
Age 2.3 years
Type internet

Technical Details

Classification Payload
Mass 305.00 kg
Dry Mass 290.00 kg
Total Mass 305.00 kg
Length 0.20 m
Diameter 2.80 m
Span 9.00 m
Shape Box + pan
Manufacturer SPXS
Bus Type Starlink
Phase Status In Orbit
Owner/State SPXS/US

Large Constellations

Loading constellations...